,,Stat6,,Stat2,,Stat8,,Stat9,,Stat10,,Wind1,,Wind1,
time,status,PA1M_AVG,status,PR1M_SUM,status,RH1M_AVG,status,SR1M_AVG,status,TA1M_AVG,status,W1dAve1m,status,W1sAve1m,
2006-03-19, 00:00:00,VALID,916.239,VALID,0,VALID,100,VALID,0.0509425,VALID,18.6735,VALID,153,VALID,0.955078,
2006-03-19, 00:01:00,VALID,916.254,VALID,0,VALID,100,VALID,0.0339617,VALID,18.6499,VALID,153,VALID,0.880208,
2006-03-19, 00:02:00,VALID,916.263,VALID,0,VALID,100,VALID,0,VALID,18.5948,VALID,150,VALID,0.801781,
2006-03-19, 00:03:00,VALID,916.275,VALID,0,VALID,100,VALID,-0.118866,VALID,19.0197,VALID,165,VALID,0.611285,
2006-03-19, 00:04:00,VALID,916.286,VALID,0,VALID,100,VALID,-0.0849042,VALID,19.6786,VALID,170,VALID,0.387962,
2006-03-19, 00:05:00,VALID,916.292,VALID,0,VALID,100,VALID,-0.0509425,VALID,19.3029,VALID,170,VALID,0.24929,
2006-03-19, 00:06:00,VALID,916.295,VALID,0,VALID,100,VALID,0.0339617,VALID,18.9058,VALID,209,VALID,0.511991,
2006-03-19, 00:07:00,VALID,916.296,VALID,0,VALID,100,VALID,0,VALID,18.7477,VALID,240,VALID,0.53497,
2006-03-19, 00:08:00,VALID,916.31,VALID,0,VALID,100,VALID,0,VALID,18.7961,VALID,240,VALID,0.530717,
2006-03-19, 00:09:00,VALID,916.33,VALID,0,VALID,100,VALID,-1,VALID,19.7366,VALID,262,VALID,0.486719,
2006-03-19, 00:10:00,VALID,916.339,VALID,0,VALID,100,VALID,-0.850314,VALID,20.2561,VALID,258,VALID,0.576079,
2006-03-19, 00:11:00,VALID,916.36,VALID,0,VALID,100,VALID,-0.0849042,VALID,19.0619,VALID,256,VALID,0.49256,
2006-03-19, 00:12:00,VALID,916.382,VALID,0,VALID,100,VALID,-0.0679233,VALID,19.9692,VALID,256,VALID,0.650484,
2006-03-19, 00:13:00,VALID,916.404,VALID,0,VALID,100,VALID,-0.0339617,VALID,19.368,VALID,243,VALID,0.755035,
2006-03-19, 00:14:00,VALID,916.436,VALID,0,VALID,100,VALID,-0.0169808,VALID,19.2116,VALID,240,VALID,1.06992,
2006-03-19, 00:15:00,VALID,916.441,VALID,0,VALID,100,VALID,0,VALID,19.35,VALID,243,VALID,0.959766,
2006-03-19, 00:16:00,VALID,916.453,VALID,0,VALID,100,VALID,0,VALID,19.3033,VALID,222,VALID,0.624809,
2006-03-19, 00:17:00,VALID,916.448,VALID,0,VALID,100,VALID,0,VALID,18.945,VALID,229,VALID,1.03105,
2006-03-19, 00:18:00,VALID,916.446,VALID,0,VALID,100,VALID,0,VALID,19.8308,VALID,235,VALID,1.01524,
2006-03-19, 00:19:00,VALID,916.444,VALID,0,VALID,100,VALID,0.0169808,VALID,20.3418,VALID,242,VALID,1.01391,
2006-03-19, 00:20:00,VALID,916.471,VALID,0,VALID,100,VALID,0.0169808,VALID,20.1767,VALID,244,VALID,1.26545,
2006-03-19, 00:21:00,VALID,916.472,VALID,0,VALID,100,VALID,0.0169808,VALID,19.9425,VALID,247,VALID,1.06752,
2006-03-19, 00:22:00,VALID,916.485,VALID,0,VALID,100,VALID,0.0169808,VALID,18.9647,VALID,234,VALID,1.63523,
2006-03-19, 00:23:00,VALID,916.503,VALID,0,VALID,100,VALID,0.0169808,VALID,18.8489,VALID,241,VALID,1.48692,
2006-03-19, 00:24:00,VALID,916.511,VALID,0,VALID,100,VALID,-0.850314,VALID,19.283,VALID,239,VALID,1.45508,
2006-03-19, 00:25:00,VALID,916.522,VALID,0,VALID,100,VALID,-0.101885,VALID,19.4019,VALID,250,VALID,0.95484,
2006-03-19, 00:26:00,VALID,916.522,VALID,0,VALID,100,VALID,-0.0849042,VALID,19.377,VALID,255,VALID,0.775254,
2006-03-19, 00:27:00,VALID,916.536,VALID,0,VALID,100,VALID,-0.0849042,VALID,19.1224,VALID,246,VALID,1.08426,
2006-03-19, 00:28:00,VALID,916.539,VALID,0,VALID,100,VALID,0.0169808,VALID,19.9368,VALID,238,VALID,0.778088,
2006-03-19, 00:29:00,VALID,916.522,VALID,0,VALID,100,VALID,0.0169808,VALID,18.8606,VALID,246,VALID,0.619141,
2006-03-19, 00:30:00,VALID,916.514,VALID,0,VALID,100,VALID,0,VALID,18.806,VALID,241,VALID,0.537919,
2006-03-19, 00:31:00,VALID,916.493,VALID,0,VALID,100,VALID,0,VALID,18.9233,VALID,232,VALID,0.892442,
2006-03-19, 00:32:00,VALID,916.495,VALID,0,VALID,100,VALID,-0.0339617,VALID,19.0575,VALID,234,VALID,0.641868,
2006-03-19, 00:33:00,VALID,916.489,VALID,0,VALID,100,VALID,0,VALID,19.403,VALID,238,VALID,0.39403,
2006-03-19, 00:34:00,VALID,916.494,VALID,0,VALID,100,VALID,0,VALID,19.0459,VALID,219,VALID,0.401344,
2006-03-19, 00:35:00,VALID,916.499,VALID,0,VALID,100,VALID,-0.0339617,VALID,19.6088,VALID,191,VALID,0.166118,
2006-03-19, 00:36:00,VALID,916.502,VALID,0,VALID,100,VALID,-0.101885,VALID,19.8037,VALID,191,VALID,0.00372869,
2006-03-19, 00:37:00,VALID,916.505,VALID,0,VALID,100,VALID,-0.101885,VALID,18.4033,VALID,191,VALID,0.367969,
2006-03-19, 00:38:00,VALID,916.5,VALID,0,VALID,100,VALID,-0.0849042,VALID,19.9757,VALID,191,VALID,0.276163,
2006-03-19, 00:39:00,VALID,916.511,VALID,0,VALID,100,VALID,-0.833333,VALID,19.7971,VALID,191,VALID,0.0871094,
2006-03-19, 00:40:00,VALID,916.491,VALID,0,VALID,100,VALID,0,VALID,18.8114,VALID,191,VALID,0.196801,
2006-03-19, 00:41:00,VALID,916.47,VALID,0,VALID,100,VALID,0.0169808,VALID,18.8737,VALID,191,VALID,0.131055,
2006-03-19, 00:42:00,VALID,916.445,VALID,0,VALID,100,VALID,0.0339617,VALID,18.6671,VALID,191,VALID,0,
2006-03-19, 00:43:00,VALID,916.42,VALID,0,VALID,100,VALID,0.0509425,VALID,18.1969,VALID,191,VALID,0.166193,
2006-03-19, 00:44:00,VALID,916.413,VALID,0,VALID,100,VALID,0.0679233,VALID,19.616,VALID,191,VALID,0.659784,
2006-03-19, 00:45:00,VALID,916.405,VALID,0,VALID,100,VALID,0.0339617,VALID,19.8408,VALID,182,VALID,1.08321,
2006-03-19, 00:46:00,VALID,916.383,VALID,0,VALID,100,VALID,0,VALID,19.386,VALID,18,VALID,1.31771,
2006-03-19, 00:47:00,VALID,916.386,VALID,0,VALID,100,VALID,0.0169808,VALID,18.6415,VALID,13,VALID,1.05687,
2006-03-19, 00:48:00,VALID,916.368,VALID,0,VALID,100,VALID,0.0169808,VALID,18.8139,VALID,13,VALID,0.798295,
2006-03-19, 00:49:00,VALID,916.339,VALID,0,VALID,100,VALID,0.0339617,VALID,19.6512,VALID,13,VALID,0.687881,
2006-03-19, 00:50:00,VALID,916.337,VALID,0,VALID,100,VALID,0.0339617,VALID,19.7369,VALID,14,VALID,0.662202,
2006-03-19, 00:51:00,VALID,916.335,VALID,0,VALID,100,VALID,0.0169808,VALID,19.298,VALID,29,VALID,0.586664,
2006-03-19, 00:52:00,VALID,916.335,VALID,0,VALID,100,VALID,0.0169808,VALID,19.5235,VALID,56,VALID,0.964935,
2006-03-19, 00:53:00,VALID,916.336,VALID,0,VALID,100,VALID,0.0339617,VALID,19.8452,VALID,72,VALID,1.18731,
2006-03-19, 00:54:00,VALID,916.348,VALID,0,VALID,100,VALID,-1,VALID,19.5623,VALID,86,VALID,1.07667,
2006-03-19, 00:55:00,VALID,916.365,VALID,0,VALID,100,VALID,-0.850314,VALID,18.818,VALID,82,VALID,1.07998,
2006-03-19, 00:56:00,VALID,916.348,VALID,0,VALID,100,VALID,-0.0339617,VALID,19.1688,VALID,64,VALID,1.51582,
2006-03-19, 00:57:00,VALID,916.341,VALID,0,VALID,100,VALID,0,VALID,19.0988,VALID,58,VALID,1.60573,
2006-03-19, 00:58:00,VALID,916.31,VALID,0,VALID,100,VALID,-0.0339617,VALID,18.5712,VALID,59,VALID,1.52288,
2006-03-19, 00:59:00,VALID,916.28,VALID,0,VALID,100,VALID,-0.0509425,VALID,19.0913,VALID,60,VALID,1.39196,
2006-03-19, 01:00:00,VALID,916.248,VALID,0,VALID,100,VALID,-0.0339617,VALID,19.0244,VALID,65,VALID,1.21711,
2006-03-19, 01:01:00,VALID,916.236,VALID,0,VALID,100,VALID,-0.0169808,VALID,18.3306,VALID,61,VALID,1.15534,
2006-03-19, 01:02:00,VALID,916.206,VALID,0,VALID,100,VALID,-0.0509425,VALID,19.3235,VALID,52,VALID,1.02012,
2006-03-19, 01:03:00,VALID,916.199,VALID,0,VALID,100,VALID,-0.0339617,VALID,19.25,VALID,54,VALID,0.640443,
2006-03-19, 01:04:00,VALID,916.165,VALID,0,VALID,100,VALID,0,VALID,19.1001,VALID,54,VALID,0.721354,
2006-03-19, 01:05:00,VALID,916.154,VALID,0,VALID,100,VALID,-0.0169808,VALID,19.1124,VALID,54,VALID,0.487614,
2006-03-19, 01:06:00,VALID,916.112,VALID,0,VALID,100,VALID,0,VALID,19.1102,VALID,54,VALID,0.48972,
2006-03-19, 01:07:00,VALID,916.087,VALID,0,VALID,100,VALID,-0.0169808,VALID,18.9279,VALID,54,VALID,0.266768,
2006-03-19, 01:08:00,VALID,916.049,VALID,0,VALID,100,VALID,0,VALID,19.5344,VALID,54,VALID,0.392535,
2006-03-19, 01:09:00,VALID,916.015,VALID,0,VALID,100,VALID,-1,VALID,19.4871,VALID,54,VALID,0.364258,
2006-03-19, 01:10:00,VALID,915.982,VALID,0,VALID,100,VALID,-1,VALID,18.2051,VALID,54,VALID,0.460379,
2006-03-19, 01:11:00,VALID,915.942,VALID,0,VALID,100,VALID,-0.833333,VALID,19.1735,VALID,54,VALID,0.224559,
2006-03-19, 01:12:00,VALID,915.91,VALID,0,VALID,100,VALID,0,VALID,18.758,VALID,54,VALID,0.0196221,
2006-03-19, 01:13:00,VALID,915.859,VALID,0,VALID,100,VALID,0,VALID,18.6324,VALID,54,VALID,0,
2006-03-19, 01:14:00,VALID,915.84,VALID,0,VALID,100,VALID,0,VALID,17.8279,VALID,54,VALID,0,
2006-03-19, 01:15:00,VALID,915.806,VALID,0,VALID,100,VALID,0.0169808,VALID,19.1042,VALID,54,VALID,0,
2006-03-19, 01:16:00,VALID,915.795,VALID,0,VALID,100,VALID,0,VALID,18.9683,VALID,54,VALID,0,
2006-03-19, 01:17:00,VALID,915.78,VALID,0,VALID,100,VALID,0,VALID,18.8711,VALID,54,VALID,0.160511,
2006-03-19, 01:18:00,VALID,915.766,VALID,0,VALID,100,VALID,0,VALID,18.9671,VALID,54,VALID,0.526296,
2006-03-19, 01:19:01,VALID,915.767,VALID,0,VALID,100,VALID,0,VALID,18.8387,VALID,54,VALID,0.613281,
2006-03-19, 01:20:00,VALID,915.75,VALID,0,VALID,100,VALID,0,VALID,18.9925,VALID,54,VALID,0.722266,
2006-03-19, 01:21:00,VALID,915.731,VALID,0,VALID,100,VALID,0.0169808,VALID,18.9923,VALID,54,VALID,0.770898,
2006-03-19, 01:22:00,VALID,915.717,VALID,0,VALID,100,VALID,0.0509425,VALID,19.0799,VALID,54,VALID,0.723586,
2006-03-19, 01:23:00,VALID,915.706,VALID,0,VALID,100,VALID,0.0169808,VALID,18.6305,VALID,54,VALID,0.666109,
2006-03-19, 01:24:00,VALID,915.698,VALID,0,VALID,100,VALID,-0.833333,VALID,19.6971,VALID,54,VALID,0.677782,
2006-03-19, 01:25:00,VALID,915.703,VALID,0,VALID,100,VALID,0.0169808,VALID,19.508,VALID,54,VALID,0.747768,
2006-03-19, 01:26:00,VALID,915.718,VALID,0,VALID,100,VALID,-0.0339617,VALID,19.8092,VALID,60,VALID,0.950238,
2006-03-19, 01:27:00,VALID,915.738,VALID,0,VALID,100,VALID,-0.0339617,VALID,19.0259,VALID,62,VALID,0.999256,
2006-03-19, 01:28:00,VALID,915.733,VALID,0,VALID,100,VALID,0,VALID,19.4195,VALID,62,VALID,1.13881,
2006-03-19, 01:29:01,VALID,915.747,VALID,0,VALID,100,VALID,-0.0169808,VALID,19.0805,VALID,60,VALID,1.11365,
2006-03-19, 01:30:00,VALID,915.737,VALID,0,VALID,100,VALID,0.0169808,VALID,18.9125,VALID,62,VALID,1.23512,
2006-03-19, 01:31:00,VALID,915.727,VALID,0,VALID,100,VALID,0,VALID,18.3812,VALID,67,VALID,1.14434,
2006-03-19, 01:32:00,VALID,915.736,VALID,0,VALID,100,VALID,0,VALID,19.1345,VALID,68,VALID,0.983648,
2006-03-19, 01:33:00,VALID,915.725,VALID,0,VALID,100,VALID,0,VALID,18.5141,VALID,68,VALID,0.600074,
2006-03-19, 01:34:00,VALID,915.726,VALID,0,VALID,100,VALID,-0.0169808,VALID,19.3596,VALID,82,VALID,0.701953,
2006-03-19, 01:35:00,VALID,915.75,VALID,0,VALID,100,VALID,-0.0169808,VALID,19.7222,VALID,93,VALID,0.896205,
2006-03-19, 01:36:00,VALID,915.759,VALID,0,VALID,100,VALID,-0.0169808,VALID,19.3325,VALID,99,VALID,0.96782,
2006-03-19, 01:37:00,VALID,915.753,VALID,0,VALID,100,VALID,-0.0169808,VALID,19.6888,VALID,102,VALID,1.07589,
2006-03-19, 01:38:00,VALID,915.763,VALID,0,VALID,100,VALID,0,VALID,20.2605,VALID,110,VALID,1.08798,
2006-03-19, 01:39:01,VALID,915.735,VALID,0,VALID,100,VALID,-1,VALID,19.1485,VALID,121,VALID,1.06955,
2006-03-19, 01:40:00,VALID,915.723,VALID,0,VALID,100,VALID,-0.850314,VALID,20.2863,VALID,131,VALID,0.908612,
2006-03-19, 01:41:00,VALID,915.701,VALID,0,VALID,100,VALID,-0.0169808,VALID,19.6311,VALID,133,VALID,0.930246,
2006-03-19, 01:42:00,VALID,915.682,VALID,0,VALID,100,VALID,-0.0679233,VALID,19.2504,VALID,140,VALID,1.11754,
2006-03-19, 01:43:00,VALID,915.655,VALID,0,VALID,100,VALID,-0.0169808,VALID,18.1646,VALID,143,VALID,1.03021,
2006-03-19, 01:44:01,VALID,915.639,VALID,0,VALID,100,VALID,-0.0169808,VALID,18.3998,VALID,143,VALID,1.07161,
2006-03-19, 01:45:00,VALID,915.639,VALID,0,VALID,100,VALID,-0.118866,VALID,18.164,VALID,143,VALID,0.835029,
2006-03-19, 01:46:00,VALID,915.632,VALID,0,VALID,100,VALID,-0.0169808,VALID,19.0678,VALID,144,VALID,0.698765,
2006-03-19, 01:47:00,VALID,915.636,VALID,0,VALID,100,VALID,-0.0169808,VALID,19.169,VALID,149,VALID,0.816746,
2006-03-19, 01:48:00,VALID,915.653,VALID,0,VALID,100,VALID,0,VALID,19.2504,VALID,146,VALID,0.8875,
2006-03-19, 01:49:00,VALID,915.651,VALID,0,VALID,100,VALID,0,VALID,18.8376,VALID,148,VALID,0.765997,
2006-03-19, 01:50:00,VALID,915.663,VALID,0,VALID,100,VALID,0.0339617,VALID,18.4455,VALID,146,VALID,0.865057,
2006-03-19, 01:51:01,VALID,915.681,VALID,0,VALID,100,VALID,0.0169808,VALID,18.8892,VALID,145,VALID,0.679142,
2006-03-19, 01:52:00,VALID,915.692,VALID,0,VALID,100,VALID,0.0169808,VALID,19.997,VALID,138,VALID,0.681323,
2006-03-19, 01:53:00,VALID,915.702,VALID,0,VALID,100,VALID,0,VALID,18.6184,VALID,122,VALID,0.836128,
2006-03-19, 01:54:00,VALID,915.714,VALID,0,VALID,100,VALID,-0.833333,VALID,19.2182,VALID,121,VALID,0.778299,
2006-03-19, 01:55:00,VALID,915.698,VALID,0,VALID,100,VALID,-0.0169808,VALID,19.0037,VALID,112,VALID,1.121,
2006-03-19, 01:56:01,VALID,915.695,VALID,0,VALID,100,VALID,-0.0679233,VALID,19.362,VALID,103,VALID,0.737043,
2006-03-19, 01:57:00,VALID,915.671,VALID,0,VALID,100,VALID,0,VALID,18.6026,VALID,97,VALID,0.463118,
2006-03-19, 01:58:00,VALID,915.646,VALID,0,VALID,100,VALID,0.0169808,VALID,18.9208,VALID,116,VALID,0.580412,
2006-03-19, 01:59:01,VALID,915.646,VALID,0,VALID,100,VALID,0,VALID,18.5906,VALID,138,VALID,0.585938,
2006-03-19, 02:00:00,VALID,915.638,VALID,0,VALID,100,VALID,0.0169808,VALID,19.4125,VALID,137,VALID,0.127604,
2006-03-19, 02:01:00,VALID,915.646,VALID,0,VALID,100,VALID,0,VALID,18.4697,VALID,137,VALID,0.0865091,
2006-03-19, 02:02:01,VALID,915.638,VALID,0,VALID,100,VALID,0,VALID,18.6965,VALID,178,VALID,0.364769,
2006-03-19, 02:03:00,VALID,915.631,VALID,0,VALID,100,VALID,0,VALID,19.0225,VALID,187,VALID,0.264236,
2006-03-19, 02:04:00,VALID,915.624,VALID,0,VALID,100,VALID,0,VALID,18.8328,VALID,187,VALID,0.0635653,
2006-03-19, 02:05:00,VALID,915.61,VALID,0,VALID,100,VALID,0,VALID,18.8327,VALID,187,VALID,0.0817587,
2006-03-19, 02:06:00,VALID,915.591,VALID,0,VALID,100,VALID,0.0169808,VALID,19.3303,VALID,114,VALID,0.484184,
2006-03-19, 02:07:01,VALID,915.581,VALID,0,VALID,100,VALID,0.0339617,VALID,18.977,VALID,80,VALID,0.741279,
2006-03-19, 02:08:00,VALID,915.568,VALID,0,VALID,100,VALID,0.0169808,VALID,18.1011,VALID,79,VALID,0.781622,
2006-03-19, 02:09:00,VALID,915.561,VALID,0,VALID,100,VALID,-1,VALID,19.47,VALID,85,VALID,0.803961,
2006-03-19, 02:10:01,VALID,915.555,VALID,0,VALID,100,VALID,-1,VALID,19.0417,VALID,103,VALID,0.89383,
2006-03-19, 02:11:00,VALID,915.53,VALID,0,VALID,100,VALID,-0.833333,VALID,18.9098,VALID,119,VALID,1.0625,
2006-03-19, 02:12:00,VALID,915.52,VALID,0,VALID,100,VALID,0,VALID,18.2756,VALID,113,VALID,1.03906,
2006-03-19, 02:13:01,VALID,915.506,VALID,0,VALID,100,VALID,0,VALID,19.0949,VALID,128,VALID,0.941797,
2006-03-19, 02:14:00,VALID,915.481,VALID,0,VALID,100,VALID,0,VALID,18.9748,VALID,133,VALID,0.743886,
2006-03-19, 02:15:00,VALID,915.444,VALID,0,VALID,100,VALID,0,VALID,18.7084,VALID,136,VALID,0.805398,
2006-03-19, 02:16:00,VALID,915.428,VALID,0,VALID,100,VALID,0,VALID,19.3691,VALID,147,VALID,0.713867,
2006-03-19, 02:17:00,VALID,915.417,VALID,0,VALID,100,VALID,-0.0169808,VALID,19.4383,VALID,142,VALID,0.678597,
2006-03-19, 02:18:01,VALID,915.405,VALID,0,VALID,100,VALID,0.0339617,VALID,19.1243,VALID,139,VALID,0.477764,
2006-03-19, 02:19:01,VALID,915.393,VALID,0,VALID,100,VALID,0,VALID,18.9919,VALID,136,VALID,0.572917,
2006-03-19, 02:20:01,VALID,915.387,VALID,0,VALID,100,VALID,0,VALID,18.0781,VALID,137,VALID,0.53145,
2006-03-19, 02:21:00,VALID,915.378,VALID,0,VALID,100,VALID,-0.0169808,VALID,18.8695,VALID,137,VALID,0.290396,
2006-03-19, 02:22:01,VALID,915.361,VALID,0,VALID,100,VALID,0,VALID,20.7987,VALID,137,VALID,0.514258,
2006-03-19, 02:23:00,VALID,915.345,VALID,0,VALID,100,VALID,0,VALID,18.5896,VALID,137,VALID,0.215511,
2006-03-19, 02:24:00,VALID,915.334,VALID,0,VALID,100,VALID,-1,VALID,19.4954,VALID,136,VALID,0.206577,
2006-03-19, 02:25:00,VALID,915.334,VALID,0,VALID,100,VALID,-1,VALID,18.8597,VALID,133,VALID,0.264628,
2006-03-19, 02:26:00,VALID,915.31,VALID,0,VALID,100,VALID,-0.833333,VALID,19.2581,VALID,132,VALID,0.376598,
2006-03-19, 02:27:01,VALID,915.301,VALID,0,VALID,100,VALID,0.0169808,VALID,18.6362,VALID,132,VALID,0.290064,
2006-03-19, 02:28:01,VALID,915.294,VALID,0,VALID,100,VALID,0,VALID,19.5809,VALID,131,VALID,0.397017,
2006-03-19, 02:29:00,VALID,915.298,VALID,0,VALID,100,VALID,-0.118866,VALID,18.0045,VALID,100,VALID,0.75142,
2006-03-19, 02:30:00,VALID,915.307,VALID,0,VALID,100,VALID,0,VALID,18.4116,VALID,90,VALID,0.740451,
2006-03-19, 02:31:00,VALID,915.309,VALID,0,VALID,100,VALID,0,VALID,19.0337,VALID,80,VALID,0.746982,
2006-03-19, 02:32:00,VALID,915.314,VALID,0,VALID,100,VALID,0.0169808,VALID,18.8022,VALID,70,VALID,1.03942,
2006-03-19, 02:33:00,VALID,915.317,VALID,0,VALID,100,VALID,0,VALID,17.9594,VALID,59,VALID,1.08359,
2006-03-19, 02:34:00,VALID,915.321,VALID,0,VALID,100,VALID,0,VALID,19.0729,VALID,68,VALID,1.0191,
2006-03-19, 02:35:00,VALID,915.318,VALID,0,VALID,100,VALID,-0.0169808,VALID,18.4149,VALID,60,VALID,1.01372,
2006-03-19, 02:36:00,VALID,915.32,VALID,0,VALID,100,VALID,0.0169808,VALID,19.0508,VALID,58,VALID,0.93679,
2006-03-19, 02:37:00,VALID,915.308,VALID,0,VALID,100,VALID,0,VALID,19.7207,VALID,32,VALID,0.680043,
2006-03-19, 02:38:01,VALID,915.296,VALID,0,VALID,100,VALID,0.0169808,VALID,18.8094,VALID,27,VALID,0.491832,
2006-03-19, 02:39:01,VALID,915.281,VALID,0,VALID,100,VALID,-0.833333,VALID,19.453,VALID,21,VALID,0.477108,
2006-03-19, 02:40:00,VALID,915.279,VALID,0,VALID,100,VALID,0,VALID,18.8813,VALID,20,VALID,0.354102,
2006-03-19, 02:41:00,VALID,915.277,VALID,0,VALID,100,VALID,-0.0509425,VALID,18.9024,VALID,20,VALID,0.0657986,
2006-03-19, 02:42:01,VALID,915.274,VALID,0,VALID,100,VALID,0.0169808,VALID,17.2668,VALID,20,VALID,0.0222942,
2006-03-19, 02:43:00,VALID,915.291,VALID,0,VALID,100,VALID,0.0679233,VALID,20.0817,VALID,20,VALID,0.000169837,
2006-03-19, 02:44:00,VALID,915.295,VALID,0,VALID,100,VALID,0.0169808,VALID,19.0515,VALID,20,VALID,0.0170785,
2006-03-19, 02:45:01,VALID,915.299,VALID,0,VALID,100,VALID,-0.0169808,VALID,19.151,VALID,20,VALID,0.277158,
2006-03-19, 02:46:00,VALID,915.288,VALID,0,VALID,100,VALID,-0.101885,VALID,19.4394,VALID,20,VALID,0.356076,
2006-03-19, 02:47:00,VALID,915.267,VALID,0,VALID,100,VALID,-0.0509425,VALID,19.4654,VALID,20,VALID,0.429129,
2006-03-19, 02:48:00,VALID,915.256,VALID,0,VALID,100,VALID,-0.0679233,VALID,19.2164,VALID,20,VALID,0.429861,
2006-03-19, 02:49:00,VALID,915.227,VALID,0,VALID,100,VALID,-0.0169808,VALID,18.4577,VALID,46,VALID,0.480824,
2006-03-19, 02:50:00,VALID,915.206,VALID,0,VALID,100,VALID,-0.0509425,VALID,19.2592,VALID,56,VALID,0.584223,
2006-03-19, 02:51:00,VALID,915.188,VALID,0,VALID,100,VALID,0.0169808,VALID,18.8004,VALID,58,VALID,0.65625,
2006-03-19, 02:52:00,VALID,915.177,VALID,0,VALID,100,VALID,0.0509425,VALID,19.6523,VALID,72,VALID,0.716206,
2006-03-19, 02:53:01,VALID,915.16,VALID,0,VALID,100,VALID,0,VALID,19.0561,VALID,101,VALID,0.685082,
2006-03-19, 02:54:01,VALID,915.129,VALID,0,VALID,100,VALID,-0.833333,VALID,19.705,VALID,101,VALID,0.657292,
2006-03-19, 02:55:00,VALID,915.118,VALID,0,VALID,100,VALID,0,VALID,18.9834,VALID,102,VALID,0.705078,
2006-03-19, 02:56:01,VALID,915.117,VALID,0,VALID,100,VALID,0,VALID,19.38,VALID,102,VALID,0.600977,
2006-03-19, 02:57:01,VALID,915.112,VALID,0,VALID,100,VALID,0,VALID,19.5601,VALID,106,VALID,0.635216,
2006-03-19, 02:58:01,VALID,915.11,VALID,0,VALID,100,VALID,0,VALID,19.2909,VALID,108,VALID,0.615371,
2006-03-19, 02:59:00,VALID,915.108,VALID,0,VALID,100,VALID,0.0169808,VALID,19.407,VALID,108,VALID,0.701853,
2006-03-19, 03:00:01,VALID,915.12,VALID,0,VALID,100,VALID,0,VALID,18.9227,VALID,108,VALID,0.669085,
2006-03-19, 03:01:01,VALID,915.127,VALID,0,VALID,100,VALID,0.0339617,VALID,19.0486,VALID,81,VALID,0.840843,
2006-03-19, 03:02:01,VALID,915.131,VALID,0,VALID,100,VALID,0.0169808,VALID,19.2934,VALID,74,VALID,0.931021,
2006-03-19, 03:03:01,VALID,915.145,VALID,0,VALID,100,VALID,0.0339617,VALID,19.1504,VALID,58,VALID,1.20332,
2006-03-19, 03:04:01,VALID,915.127,VALID,0,VALID,100,VALID,0.0509425,VALID,19.3354,VALID,34,VALID,1.44799,
2006-03-19, 03:05:01,VALID,915.108,VALID,0,VALID,100,VALID,0,VALID,19.1305,VALID,43,VALID,1.40739,
2006-03-19, 03:06:01,VALID,915.073,VALID,0,VALID,100,VALID,0.0169808,VALID,20.0344,VALID,28,VALID,1.16352,
2006-03-19, 03:07:01,VALID,915.042,VALID,0,VALID,100,VALID,0,VALID,18.9415,VALID,42,VALID,0.909268,
2006-03-19, 03:08:01,VALID,915.001,VALID,0,VALID,100,VALID,0.0339617,VALID,18.7915,VALID,47,VALID,0.672286,
2006-03-19, 03:09:00,VALID,914.988,VALID,0,VALID,100,VALID,-0.833333,VALID,18.9859,VALID,65,VALID,0.64226,
2006-03-19, 03:10:01,VALID,914.965,VALID,0,VALID,100,VALID,-0.0169808,VALID,19.1998,VALID,98,VALID,0.828125,
2006-03-19, 03:11:01,VALID,914.952,VALID,0,VALID,100,VALID,-0.101885,VALID,19.8135,VALID,107,VALID,0.932594,
2006-03-19, 03:12:01,VALID,914.946,VALID,0,VALID,100,VALID,-0.0849042,VALID,19.1905,VALID,127,VALID,1.05339,
2006-03-19, 03:13:01,VALID,914.931,VALID,0,VALID,100,VALID,-0.0169808,VALID,19.2693,VALID,121,VALID,1.30342,
2006-03-19, 03:14:01,VALID,914.931,VALID,0,VALID,100,VALID,0,VALID,18.9101,VALID,120,VALID,1.24183,
2006-03-19, 03:15:01,VALID,914.912,VALID,0,VALID,100,VALID,0,VALID,19.1527,VALID,111,VALID,1.16264,
2006-03-19, 03:16:00,VALID,914.897,VALID,0,VALID,100,VALID,0.0169808,VALID,19.5737,VALID,95,VALID,0.982195,
2006-03-19, 03:17:00,VALID,914.882,VALID,0,VALID,100,VALID,0.0339617,VALID,19.2273,VALID,96,VALID,1.02273,
2006-03-19, 03:18:01,VALID,914.855,VALID,0,VALID,100,VALID,0.0169808,VALID,18.5667,VALID,98,VALID,0.95918,
2006-03-19, 03:19:00,VALID,914.839,VALID,0,VALID,100,VALID,0.0169808,VALID,19.3316,VALID,101,VALID,0.730556,
2006-03-19, 03:20:01,VALID,914.832,VALID,0,VALID,100,VALID,0.0169808,VALID,19.6385,VALID,104,VALID,0.469893,
2006-03-19, 03:21:01,VALID,914.825,VALID,0,VALID,100,VALID,0,VALID,19.5932,VALID,138,VALID,0.460938,
2006-03-19, 03:22:01,VALID,914.81,VALID,0,VALID,100,VALID,0,VALID,18.4084,VALID,147,VALID,0.317827,
2006-03-19, 03:23:01,VALID,914.801,VALID,0,VALID,100,VALID,0.0169808,VALID,20.0017,VALID,167,VALID,0.324033,
2006-03-19, 03:24:01,VALID,914.799,VALID,0,VALID,100,VALID,-0.833333,VALID,19.377,VALID,167,VALID,0.0630451,
2006-03-19, 03:25:01,VALID,914.776,VALID,0,VALID,100,VALID,0,VALID,19.5845,VALID,167,VALID,0.0537348,
2006-03-19, 03:26:01,VALID,914.768,VALID,0,VALID,100,VALID,0,VALID,18.68,VALID,154,VALID,0.158203,
2006-03-19, 03:27:01,VALID,914.765,VALID,0,VALID,100,VALID,0.0339617,VALID,18.9993,VALID,124,VALID,0.17152,
2006-03-19, 03:28:01,VALID,914.758,VALID,0,VALID,100,VALID,-0.0169808,VALID,18.9411,VALID,124,VALID,0,
2006-03-19, 03:29:01,VALID,914.769,VALID,0,VALID,100,VALID,0.0169808,VALID,19.6404,VALID,124,VALID,0,
2006-03-19, 03:30:01,VALID,914.771,VALID,0,VALID,100,VALID,0,VALID,19.1093,VALID,124,VALID,0,
2006-03-19, 03:31:01,VALID,914.771,VALID,0,VALID,100,VALID,-0.0679233,VALID,19.542,VALID,124,VALID,0,
2006-03-19, 03:32:01,VALID,914.79,VALID,0,VALID,100,VALID,-0.0169808,VALID,20.5105,VALID,124,VALID,0,
2006-03-19, 03:33:01,VALID,914.801,VALID,0,VALID,100,VALID,-0.101885,VALID,19.2067,VALID,124,VALID,0,
2006-03-19, 03:34:01,VALID,914.82,VALID,0,VALID,100,VALID,-0.0679233,VALID,19.8965,VALID,124,VALID,0,
2006-03-19, 03:35:01,VALID,914.82,VALID,0,VALID,100,VALID,-0.0849042,VALID,20.8708,VALID,124,VALID,0.0552326,
2006-03-19, 03:36:01,VALID,914.832,VALID,0,VALID,100,VALID,0.0509425,VALID,19.1117,VALID,124,VALID,0.378348,
2006-03-19, 03:37:01,VALID,914.827,VALID,0,VALID,100,VALID,0.0339617,VALID,19.4377,VALID,196,VALID,0.555753,
2006-03-19, 03:38:01,VALID,914.815,VALID,0,VALID,100,VALID,-0.0339617,VALID,18.8597,VALID,222,VALID,0.492001,
2006-03-19, 03:39:00,VALID,914.816,VALID,0,VALID,100,VALID,-1,VALID,18.8621,VALID,232,VALID,0.541146,
2006-03-19, 03:40:00,VALID,914.814,VALID,0,VALID,100,VALID,-0.850314,VALID,19.3127,VALID,229,VALID,0.521019,
2006-03-19, 03:41:00,VALID,914.807,VALID,0,VALID,100,VALID,-0.0509425,VALID,18.6855,VALID,213,VALID,0.361471,
2006-03-19, 03:42:00,VALID,914.809,VALID,0,VALID,100,VALID,-0.0339617,VALID,19.5182,VALID,208,VALID,0.316746,
2006-03-19, 03:43:00,VALID,914.819,VALID,0,VALID,100,VALID,-0.0849042,VALID,19.5073,VALID,208,VALID,0.308507,
2006-03-19, 03:44:00,VALID,914.823,VALID,0,VALID,100,VALID,-0.0169808,VALID,18.8951,VALID,208,VALID,0.0273438,
2006-03-19, 03:45:00,VALID,914.83,VALID,0,VALID,100,VALID,0.0509425,VALID,18.8326,VALID,208,VALID,0.00190549,